Theta_e
348 347 347 347 347 346 345 345 345 344 343 342 337 332 332 334 335 337 337 337 341 334 331 334 329 332 334 335 334 333 333 333 332 332 334 336 333 333 332 331 330 330 330
348 347 346 346 346 345 345 345 345 344 342 337 332 332 333 333 334 336 339 337 336 325 339 326 336 339 332 333 331 329 330 334 334 336 338 338 335 335 335 334 333 334 335
347 346 345 342 342 344 343 339 336 333 333 334 337 340 339 339 340 339 343 343 332 338 333 326 326 327 328 326 326 325 325 327 334 336 335 335 332 326 328 327 329 330 330
346 344 339 334 334 334 333 333 334 336 339 340 341 341 340 337 334 336 335 330 327 331 324 324 325 327 326 329 332 331 334 337 332 330 327 330 329 328 328 328 327 326 326
341 339 332 330 330 332 333 335 336 337 338 338 338 340 341 333 325 323 327 325 337 327 328 336 338 338 340 341 342 342 338 338 339 337 331 326 327 326 329 331 330 327 326
340 337 331 330 331 336 338 338 338 337 338 339 339 339 328 325 326 339 341 335 340 331 336 340 341 342 343 344 344 343 343 341 340 338 333 330 329 335 329 328 326 326 326
340 338 335 332 334 337 338 339 338 338 338 339 340 334 327 324 330 336 327 329 333 330 333 339 342 341 340 339 341 342 341 341 342 342 331 327 326 332 335 328 328 329 329
339 338 337 335 336 332 331 335 337 337 333 338 339 339 336 332 326 328 331 333 333 330 328 330 339 340 339 341 341 342 342 341 342 343 342 329 324 325 341 327 326 329 332
337 338 337 337 335 339 341 339 337 336 332 328 327 329 335 328 327 330 332 335 335 334 334 331 331 336 337 341 341 342 341 341 342 343 343 341 328 324 325 327 329 327 328
338 338 337 336 338 334 334 337 334 332 332 332 332 332 330 328 328 329 332 334 336 334 335 334 331 332 337 340 341 342 342 344 344 344 344 344 339 330 325 324 325 328 329
338 337 337 336 332 331 333 336 336 337 337 335 337 339 337 335 334 332 331 329 329 329 331 334 335 337 338 339 340 342 342 345 345 345 345 344 343 339 335 329 325 324 326
336 338 334 333 331 331 331 336 338 340 340 341 341 343 344 343 343 341 342 341 338 335 332 331 334 336 339 340 342 342 340 344 345 344 346 345 344 343 341 339 335 329 326
336 337 334 331 330 330 330 333 342 345 346 344 342 342 345 345 346 343 344 344 342 343 338 331 332 336 338 341 342 342 343 345 344 344 345 345 345 345 344 342 341 340 338
336 336 334 331 330 331 330 334 338 343 344 343 342 340 339 342 342 343 343 343 344 345 343 344 339 336 336 339 341 341 342 342 342 342 343 345 342 343 346 345 344 341 342
334 337 334 333 331 331 331 338 338 342 342 338 337 337 342 344 344 343 341 340 340 341 342 343 343 343 341 340 340 341 340 338 342 342 341 341 340 340 341 344 344 343 342
332 335 337 336 334 332 334 337 337 337 341 341 342 343 347 347 345 343 345 341 337 336 338 340 343 341 341 340 338 338 339 339 337 337 340 341 341 340 338 339 342 342 343
337 335 337 337 335 333 331 334 334 339 343 344 346 345 344 345 346 345 345 343 340 336 341 342 343 342 340 341 340 341 340 340 341 340 339 341 342 342 342 339 339 339 340
342 340 338 338 336 334 333 333 333 336 339 341 343 345 345 347 347 345 344 343 341 339 340 342 342 337 334 337 337 338 338 340 341 343 343 342 342 342 342 342 340 341 342
341 342 340 338 338 335 335 335 332 333 333 336 339 342 345 345 347 346 342 343 343 341 339 335 338 342 339 341 340 336 335 335 335 339 342 344 344 343 343 345 345 342 342
337 340 339 338 337 337 336 335 332 333 333 335 339 343 343 344 344 345 344 343 345 343 341 336 341 341 339 334 329 325 325 325 326 327 326 326 327 331 338 345 346 346 346
336 337 340 336 335 335 334 334 333 333 333 337 341 346 345 344 345 346 345 345 341 340 336 343 340 335 330 332 327 324 325 325 327 327 326 325 324 322 323 331 335 341 344
337 336 336 336 334 334 334 334 333 333 337 339 343 344 345 345 347 345 342 340 334 334 339 341 335 332 331 337 337 336 333 328 328 327 327 326 325 323 321 322 326 330 336
342 336 336 335 335 335 335 336 335 334 338 341 343 345 345 347 346 345 340 341 337 338 339 338 336 335 333 330 337 340 338 333 332 332 327 329 328 321 320 321 322 328 329
344 344 340 342 336 335 339 342 343 342 341 339 340 340 343 347 347 346 342 341 338 336 334 334 337 338 336 330 330 328 332 333 335 333 330 326 323 322 324 323 322 324 327
345 345 345 344 344 341 340 340 342 343 340 339 339 341 345 347 347 346 345 344 341 341 342 341 337 340 337 335 331 329 326 327 328 329 332 329 323 324 324 326 328 325 329
345 345 345 345 345 344 344 343 343 340 339 339 338 340 344 346 348 347 345 343 342 339 337 337 336 338 338 334 333 327 328 331 331 331 333 334 331 327 328 328 327 328 331
Wind_Speed
19 21 21 23 24 25 25 24 25 24 24 20 18 17 16 16 14 14 14 13 11 12 11 12 12 11 12 11 12 11 9 8 8 7 8 10 9 9 9 8 8 9 8
22 20 20 22 22 22 23 24 24 22 20 19 16 14 14 13 13 13 12 11 11 12 14 13 15 12 12 12 12 10 10 9 8 6 5 7 8 8 7 7 5 5 5
21 20 20 21 23 24 24 24 23 21 19 17 15 14 14 15 14 14 13 12 11 13 13 13 14 13 13 12 12 12 12 10 9 7 5 3 4 4 5 4 4 4 4
21 22 24 25 25 25 23 21 19 18 17 15 15 15 14 12 11 13 12 12 11 12 12 14 14 14 15 15 15 14 13 11 8 7 4 2 2 3 4 4 3 3 3
24 24 26 26 24 22 20 19 18 17 16 15 15 15 13 11 12 14 14 13 13 12 14 16 15 15 13 11 8 7 7 7 7 6 5 3 3 2 1 2 3 2 3
23 23 24 22 21 19 18 17 17 17 15 14 14 13 11 12 14 14 13 13 13 12 13 13 13 11 10 8 7 5 4 6 6 8 6 3 1 2 1 1 1 2 3
23 22 21 19 18 17 18 18 18 16 15 14 13 11 12 12 13 13 13 14 13 13 13 10 8 7 7 6 5 5 4 5 6 7 8 5 2 2 1 1 2 2 3
22 22 21 22 17 18 18 18 18 18 14 13 13 12 13 12 12 14 15 14 13 11 10 9 7 6 3 4 4 4 4 4 4 6 8 8 5 3 3 3 4 4 3
23 23 22 20 20 19 18 17 15 17 18 15 14 13 13 12 12 12 11 11 10 9 8 7 6 5 4 2 2 2 2 3 5 7 7 8 7 6 4 4 4 5 5
23 22 20 22 19 20 18 16 17 18 17 17 16 15 14 12 11 9 8 7 6 6 6 5 5 5 4 2 2 4 4 6 7 9 8 8 8 7 6 6 5 5 6
20 19 20 18 19 19 20 17 17 17 14 14 13 13 13 12 10 9 8 6 4 4 4 4 4 5 4 2 3 7 7 6 8 11 8 8 8 8 8 8 7 6 7
22 21 23 20 19 17 18 16 13 13 10 9 9 10 10 9 9 7 7 7 5 4 2 3 3 5 5 5 6 6 6 7 9 10 6 7 8 9 9 9 8 8 9
23 23 24 20 18 15 12 12 12 10 10 7 8 7 7 7 6 7 5 5 3 2 1 3 5 7 7 8 8 9 10 10 10 8 6 6 7 9 11 12 12 10 8
27 27 26 23 19 17 13 12 10 8 6 6 6 5 6 6 6 4 4 4 3 4 4 5 6 9 12 12 14 15 15 16 16 14 12 13 11 12 12 14 12 11 11
28 27 27 24 20 16 13 13 10 7 5 5 4 3 5 6 7 5 3 3 5 5 7 9 9 10 11 12 12 14 16 16 16 16 15 16 16 17 17 16 15 14 14
26 27 26 25 22 18 14 10 8 6 3 3 3 3 4 4 4 5 8 5 4 8 9 9 10 11 12 13 13 15 16 15 16 18 19 19 20 20 21 22 20 19 18
25 25 25 25 26 21 17 11 7 5 3 1 2 1 3 6 8 8 6 8 7 8 8 9 11 12 14 13 16 14 15 15 16 18 20 21 21 22 22 23 25 25 25
24 28 27 26 27 24 22 16 9 7 5 3 4 5 6 8 9 8 8 9 9 8 12 15 14 13 12 12 16 14 14 16 18 19 19 19 20 21 21 21 23 25 25
22 26 31 30 28 26 23 19 15 11 8 9 9 9 10 10 8 8 8 9 11 9 10 18 15 15 14 14 14 10 12 16 15 15 17 16 16 17 17 19 21 23 26
19 24 28 32 30 26 22 20 19 17 14 12 11 10 8 7 9 8 9 11 12 10 10 14 16 13 10 13 14 12 13 11 9 11 18 16 17 18 18 17 17 19 22
20 21 26 31 29 28 26 24 20 19 15 13 11 9 10 10 11 13 11 13 11 13 14 17 16 15 9 12 16 19 16 13 5 12 21 20 23 19 19 18 21 22 20
20 19 21 23 26 26 25 24 22 19 16 15 11 10 10 9 14 15 10 10 10 11 10 10 12 14 15 15 19 19 17 23 13 29 22 28 24 28 30 26 23 21 21
22 21 20 20 21 22 21 20 19 19 18 15 12 10 11 13 14 12 7 8 8 7 8 10 12 14 15 16 18 19 17 15 36 22 33 25 28 37 35 31 28 25 22
25 22 22 19 20 19 19 19 19 19 17 14 13 12 13 12 10 9 7 6 6 7 8 10 13 16 20 21 22 23 24 26 30 29 28 39 39 40 37 33 30 27 26
29 27 24 23 21 20 20 19 20 20 18 15 13 14 14 12 14 14 11 10 10 10 12 13 13 18 21 24 23 26 28 26 27 31 33 37 44 43 41 34 30 28 25
32 31 29 27 22 22 23 21 22 19 19 17 13 11 12 13 14 13 13 14 15 17 20 20 20 21 22 22 23 23 25 28 33 33 37 38 40 44 42 40 34 30 26
Wind_Direction
121 124 121 121 120 118 117 119 122 121 120 122 120 117 113 115 116 116 113 110 109 108 114 116 104 103 101 104 100 100 102 97 104 109 121 121 121 122 122 122 127 133 138
131 124 123 122 123 123 120 120 120 121 122 122 120 118 116 116 114 107 107 107 103 99 95 102 108 101 101 103 101 97 91 88 87 83 100 114 119 127 129 137 147 145 145
134 130 125 123 122 122 122 121 121 121 122 121 118 115 114 112 107 112 108 107 103 105 105 101 107 108 103 101 97 90 86 84 93 94 66 76 95 110 141 141 154 169 175
135 131 127 123 120 119 120 118 118 119 114 111 110 107 108 107 110 114 115 110 103 104 105 108 105 102 104 103 97 93 90 79 76 92 78 49 37 92 115 126 135 154 168
133 134 129 124 120 118 118 118 120 118 112 107 109 109 109 103 104 104 101 100 103 103 107 111 108 107 106 108 96 96 95 68 51 39 50 23 63 56 115 121 129 153 169
134 139 134 128 123 118 116 117 118 118 113 110 112 112 108 109 111 108 105 115 108 105 115 118 111 109 104 105 99 83 61 36 28 27 21 9 22 54 77 224 136 174 181
140 139 140 129 121 113 113 116 114 110 106 105 106 98 100 106 115 114 110 113 113 117 128 128 123 124 107 87 77 75 59 41 17 10 16 15 342 309 304 284 280 198 192
143 143 138 131 126 120 117 117 116 113 107 105 102 96 96 102 114 116 113 109 111 117 127 148 153 148 133 108 84 72 41 22 23 7 1 4 1 335 259 279 271 253 243
142 140 136 135 126 118 111 110 106 110 108 106 104 103 101 100 108 111 113 112 120 127 130 146 172 180 190 173 114 12 9 356 358 353 345 350 349 343 312 286 266 267 254
150 141 141 136 130 119 113 111 110 103 108 106 103 100 97 98 102 107 109 114 117 120 128 141 171 193 216 222 265 298 306 318 332 331 319 325 333 334 327 306 288 277 272
155 143 142 135 130 125 121 116 116 114 104 104 103 99 97 95 92 95 98 102 109 112 124 147 168 187 192 238 306 304 306 307 313 328 309 305 311 321 322 321 306 290 281
156 152 146 148 142 130 122 124 124 116 109 105 98 97 94 88 78 79 76 83 83 85 111 168 197 212 204 253 287 294 287 293 308 318 297 299 310 307 305 305 304 301 299
164 157 158 159 148 131 124 130 135 127 113 116 98 94 80 66 54 66 55 51 38 31 325 235 232 241 251 274 285 288 285 283 292 310 294 296 307 302 296 293 290 293 294
171 167 167 169 164 155 152 143 140 135 124 116 103 88 77 73 70 51 23 356 339 342 303 277 261 258 263 277 290 288 287 286 290 284 280 284 292 294 286 285 279 280 287
179 176 177 180 178 173 161 152 147 130 127 120 115 100 59 52 44 27 357 329 328 313 290 279 283 282 278 270 278 289 292 292 287 290 286 278 280 282 281 275 281 277 278
190 186 184 193 189 187 174 158 140 133 134 186 128 95 33 17 17 360 350 328 270 274 277 288 301 316 308 302 305 306 302 302 299 294 288 287 287 283 279 276 270 275 279
198 195 195 197 199 201 193 183 167 163 176 127 55 333 326 346 331 313 324 324 292 276 273 283 304 320 326 324 317 307 302 299 300 303 302 297 295 288 286 281 275 276 277
200 201 199 199 205 207 207 208 203 199 230 274 282 288 314 319 331 315 304 311 317 300 312 306 301 322 337 333 324 296 313 311 308 304 297 296 296 293 291 286 283 280 279
201 202 203 205 207 210 215 216 221 226 243 253 268 288 290 296 314 312 310 301 304 316 333 319 333 325 306 322 331 334 318 317 316 308 309 309 305 299 296 295 287 280 273
195 198 200 203 204 211 221 227 232 242 251 261 277 286 297 314 323 317 313 310 296 292 275 324 317 326 315 328 343 352 346 8 5 26 356 348 334 316 304 298 297 282 269
194 194 198 204 207 213 219 223 233 245 261 274 282 275 304 328 328 332 311 307 283 271 289 292 319 315 335 344 341 341 359 350 357 348 337 336 333 329 326 314 302 296 292
202 195 197 203 211 220 224 233 243 246 259 269 270 280 309 328 333 333 315 313 306 278 272 291 303 315 335 341 343 343 337 337 312 324 325 325 322 319 317 312 311 302 293
209 204 201 201 205 212 221 228 233 245 253 261 280 298 307 319 331 342 336 332 319 297 299 305 313 321 324 333 338 329 329 316 321 320 322 322 313 319 319 314 310 302 296
213 212 212 211 212 212 221 230 236 247 260 277 289 296 304 314 318 323 306 296 285 277 287 307 318 325 327 325 323 321 314 311 314 317 314 313 318 318 321 321 314 306 298
218 219 216 217 220 221 227 237 244 251 260 273 286 304 308 308 308 308 301 299 278 284 289 286 295 304 307 309 309 311 308 308 308 312 310 312 316 319 318 315 316 311 307
226 224 225 227 222 227 232 234 241 250 260 266 275 285 291 291 300 309 301 298 299 277 275 282 290 299 302 302 298 300 303 311 315 315 311 311 313 318 319 315 312 310 309